Location: ??????
(36.2514°N, 43.5329°E)
Time: 20:14:08
(UTC+00:00)

Daily predictions for brighter satellites

Satellite Brightness Start Highest point End
(mag) Time Altitude Azimuth Time Altitude Azimuth Time Altitude Azimuth
Meteor 1-21 Rocket 4.4 14:47:16 10° N 14:53:03 56° ENE 14:58:40 10° SSE
SL-14 R/B 3.8 14:50:37 10° NNW 14:54:25 64° W 14:58:12 10° S
ATLAS 5 CENTAUR R/B 3.3 14:54:03 10° WSW 14:57:48 31° NW 15:01:53 10° NNE
Cosmos 1470 4.1 14:55:51 10° SSW 14:59:42 46° W 15:03:33 10° N
Cosmos 2228 3.0 14:57:15 10° S 15:01:35 67° E 15:05:56 10° NNE
Envisat 3.0 14:57:10 10° SSE 15:02:09 59° ENE 15:07:09 10° N
Okean-O 2.8 14:58:05 10° S 15:02:30 83° WSW 15:06:57 10° NNW
Cosmos 2058 Rocket 3.4 14:59:55 10° SSE 15:04:00 40° E 15:08:05 10° NNE
Cosmos 1821 Rocket 3.9 15:00:53 10° N 15:06:59 69° E 15:13:07 10° SSE
CZ-4 R/B 1.7 15:04:47 10° SE 15:08:43 45° ENE 15:12:43 10° N
Nadezhda 3 Rocket 4.2 15:03:27 10° S 15:09:42 81° W 15:16:04 10° N
Shenzhou-11 Module 3.5 15:08:56 10° WNW 15:11:17 24° N 15:13:36 10° NE
Cosmos 921 Rocket 3.0 15:07:59 10° S 15:12:29 79° ESE 15:16:59 10° NNE
CSL-04 Rocket 4.0 15:09:10 10° SE 15:14:26 47° ENE 15:19:42 10° N
OAO 3 Rocket 3.4 15:09:46 10° WSW 15:14:40 70° S 15:18:50 14° E
NOAA 12 4.4 15:11:08 10° S 15:16:22 75° WSW 15:21:41 10° NNW
CZ-3 Stage 3 2.7 15:10:44 10° WSW 15:17:23 34° S 15:19:34 13° ESE
Cosmos 1934 Rocket 4.1 15:13:59 10° N 15:20:11 55° E 15:26:24 10° SSE
Cosmos 1356 3.3 15:21:49 10° S 15:25:11 63° E 15:28:36 10° NNE
OAO 2 Rocket 3.5 15:21:57 10° W 15:27:14 79° S 15:31:06 19° E
COSMO-SKYMED 1 3.0 15:22:56 10° N 15:27:14 64° WNW 15:31:31 10° SSW
Abrixas rocket 1.9 15:24:25 10° SW 15:27:27 69° SE 15:29:13 22° ENE
ASTEX 1 3.5 15:24:27 10° N 15:29:25 85° W 15:34:23 10° S
USA 238 DEB 4.2 15:24:09 10° S 15:30:02 34° ESE 15:36:02 10° NE
USA 238 4.2 15:24:17 10° S 15:30:08 34° ESE 15:36:07 10° NE
EO 1 Delta rocket 4.0 15:26:16 10° SSE 15:30:47 49° ENE 15:35:17 10° N
USA 116 3.2 15:29:41 10° NNE 15:32:52 87° WNW 15:36:16 10° SSW
Cosmos 1833 Rocket 4.0 15:31:26 10° N 15:35:27 20° NE 15:36:24 19° ENE
CZ-2D R/B 3.8 15:32:24 10° SE 15:35:56 36° ENE 15:39:29 10° N
Cosmos 1354 Rocket 4.2 15:32:16 10° NNW 15:37:30 75° WSW 15:42:42 10° S
Cosmos 1953 Rocket 3.9 15:35:12 10° NNW 15:39:32 66° W 15:43:49 10° S
Cosmos 1271 Rocket 3.6 15:36:05 10° NNW 15:39:58 54° W 15:43:52 10° S
Cosmos 1726 2.3 15:37:33 10° SSW 15:41:11 70° W 15:44:51 10° N
Cosmos 968 Rocket 4.2 15:37:44 10° NNW 15:42:54 57° WSW 15:48:00 10° S
SL-4 R/B 1.7 15:39:57 10° NW 15:43:42 65° NE 15:45:03 35° ESE
Ariane Rocket 3.4 15:40:04 10° SE 15:44:48 41° ENE 15:49:33 10° N
USA 234 4.2 15:42:38 22° E 15:44:58 27° SE 15:50:16 10° S
Cosmos 839 Rocket 4.2 15:48:25 10° NNW 15:54:38 59° ENE 16:00:09 18° SE
Cosmos 2082 Rocket 3.6 15:50:58 10° N 15:54:33 20° NE 15:54:33 20° NE
CSL-04 Debris 4.4 15:50:26 10° S 15:55:51 72° WSW 16:01:19 10° NNW
COSMOS 2406 3.2 15:50:48 10° NNW 15:56:31 63° ENE 16:00:50 18° SE
NOSS 3-2 (A) 3.6 15:51:25 10° S 15:56:36 41° ESE 15:58:54 29° ENE
Cosmos 1242 Rocket 2.9 15:53:50 10° NNW 15:57:29 65° W 16:01:07 10° S
Cosmos 1703 3.2 15:54:36 10° N 15:58:34 85° W 16:02:27 10° S
Lacrosse 5 3.8 16:02:48 10° N 16:05:29 14° NNE 16:05:32 14° NNE
IRS-1A Rocket 4.2 16:01:21 17° SE 16:05:32 57° ENE 16:10:55 10° N
Cosmos 1812 Rocket 3.5 16:01:40 10° S 16:05:57 57° E 16:10:18 10° NNE
Meteor 1-11 4.2 16:04:17 10° N 16:10:04 86° W 16:15:53 10° S
Cosmos 1777 Rocket 3.9 16:05:04 10° N 16:10:14 62° ENE 16:11:51 41° SE
H-2A R/B 3.8 16:16:45 18° NNE 16:16:45 18° NNE 16:18:30 10° NNE
YAOGAN 1 4.0 16:10:59 10° SSW 16:14:59 38° W 16:19:02 10° NNW
NOSS 3-2 (C) 4.2 16:13:47 10° S 16:17:07 30° SSE 16:17:07 30° SSE
BREEZE-M DEB (TANK) 4.4 16:12:33 10° WNW 16:19:02 34° WSW 16:20:21 24° SSW
Cosmos 1939 Rocket 3.3 16:20:26 22° S 16:22:49 60° W 16:26:47 10° NNW
BREEZE-M DEB (TANK) 3.9 16:15:01 10° WSW 16:26:11 49° NW 16:27:50 32° NNE
Cosmos 2278 Rocket 2.9 16:25:28 10° SW 16:30:59 53° WNW 16:36:33 10° NNE
Lacrosse 5 rocket 2.5 16:28:49 10° WNW 16:32:24 36° SW 16:32:50 35° SW
Cosmos 1459 Rocket 4.3 16:45:53 10° N 16:50:31 51° NNE 16:50:31 51° NNE
ADEOS Rocket 3.3 16:47:19 10° NNE 16:55:03 79° ESE 17:02:09 10° S
OAO 3 Rocket 4.2 16:53:12 10° W 16:56:38 44° W 16:56:38 44° W
ATLAS 3B R/B 4.1 16:52:52 10° S 16:55:07 22° S 16:55:07 22° S
Cosmos 1833 Rocket 3.7 17:14:14 10° NNW 17:18:08 41° WNW 17:18:08 41° WNW
USA 234 3.9 17:30:03 50° WSW 17:30:03 50° WSW 17:34:45 10° SW
Cosmos 2082 Rocket 4.0 17:33:56 10° NNW 17:36:26 26° NW 17:36:26 26° NW
